SR9WXY Weather Reports


time (UTC)temp
F
wind
direction
speed
knots
gust
knots
rain 1hr
in
rain 24hr
in
rain mn
in
humidity
%
barometer
mb
20260508012940 40 0 0.0 0.0 0.00 0.00 0.00 27 880.4
20260508012440 40 0 0.0 0.0 0.00 0.00 0.00 27 880.4
20260508011940 40 0 0.0 0.0 0.00 0.00 0.00 28 880.4
20260508011440 40 0 0.0 0.0 0.00 0.00 0.00 28 880.4
20260508010940 41 0 0.0 0.0 0.00 0.00 0.00 28 880.4
20260508010439 41 0 75.6 110.4 0.00 0.00 0.00 28 880.3
20260508005939 42 202 136.4 136.4 0.00 0.00 0.00 28 880.3
20260508005439 42 0 132.1 136.4 0.00 0.00 0.00 28 880.4
20260508004939 42 185 102.5 110.4 0.00 0.00 0.00 28 880.4
20260508004439 42 20 69.5 110.4 0.00 0.00 0.00 28 880.5
20260508003939 42 317 3.5 8.7 0.00 0.00 0.00 28 880.6
20260508003428 42 0 0.0 1.7 0.00 0.00 0.00 28 880.7
20260508002928 42 0 0.0 0.0 0.00 0.00 0.00 28 880.7
20260508002428 43 0 0.0 0.0 0.00 0.00 0.00 29 880.7
20260508001928 43 0 0.0 0.0 0.00 0.00 0.00 29 880.6
20260508001429 43 0 0.0 0.0 0.00 0.00 0.00 29 880.7
20260508000926 43 0 0.0 0.0 0.00 0.00 0.00 29 880.7
20260508000427 43 0 0.0 0.0 0.00 0.00 0.00 29 880.7
20260507235926 43 0 0.0 0.0 0.00 0.00 0.00 29 880.7
20260507235426 43 0 0.0 0.0 0.00 0.00 0.00 29 880.6
20260507234927 43 0 0.0 0.0 0.00 0.00 0.00 29 880.6
20260507234427 43 0 0.0 0.0 0.00 0.00 0.00 28 880.6
20260507233927 43 0 0.0 0.0 0.00 0.00 0.00 28 880.5
20260507233425 43 0 0.0 0.0 0.00 0.00 0.00 28 880.5
20260507232926 44 0 0.0 0.0 0.00 0.00 0.00 28 880.6
20260507232426 44 0 0.0 0.0 0.00 0.00 0.00 28 880.6
20260507231925 44 0 0.0 0.0 0.00 0.00 0.00 28 880.7
20260507231425 44 0 0.0 0.0 0.00 0.00 0.00 28 880.7
20260507230925 44 0 0.0 0.0 0.00 0.00 0.00 29 880.7
20260507230425 44 0 0.0 0.0 0.00 0.00 0.00 29 880.7
20260507225925 44 0 0.0 0.0 0.00 0.00 0.00 29 880.7
20260507225425 44 270 12.2 34.8 0.00 0.00 0.00 29 880.6
20260507224925 44 0 0.0 0.0 0.00 0.00 0.00 29 880.6
20260507224423 44 0 0.0 0.0 0.00 0.00 0.00 28 880.6
20260507223923 44 0 0.0 0.0 0.00 0.00 0.00 28 880.6
20260507223423 44 0 0.0 0.0 0.00 0.00 0.00 28 880.6
20260507222923 44 0 0.0 0.0 0.00 0.00 0.00 28 880.7
20260507222423 44 0 0.0 0.0 0.00 0.00 0.00 29 880.6
20260507221921 44 0 0.0 0.0 0.00 0.00 0.00 28 880.6
20260507221421 44 0 0.0 0.0 0.00 0.00 0.00 29 880.6
20260507220921 44 0 0.0 0.0 0.00 0.00 0.00 29 880.6
20260507220412 44 0 0.0 0.0 0.00 0.00 0.00 29 880.6
20260507215912 44 0 0.0 0.0 0.00 0.00 0.00 29 880.6
20260507215412 44 0 0.0 0.0 0.00 0.00 0.00 29 880.5
20260507214912 44 0 0.0 0.0 0.00 0.00 0.00 28 880.6
20260507214411 44 0 0.0 0.0 0.00 0.00 0.00 28 880.6
20260507213911 44 0 0.0 0.0 0.00 0.00 0.00 28 880.5
20260507213411 44 0 0.0 0.0 0.00 0.00 0.00 28 880.6
20260507212912 44 0 0.0 0.0 0.00 0.00 0.00 28 880.6
20260507212412 44 0 0.0 0.0 0.00 0.00 0.00 28 880.5
20260507211912 44 0 0.0 0.0 0.00 0.00 0.00 28 880.5
20260507211411 44 0 0.0 0.0 0.00 0.00 0.00 28 880.4
20260507210912 44 0 0.0 0.0 0.00 0.00 0.00 28 880.4
20260507210412 44 0 0.0 0.0 0.00 0.00 0.00 28 880.4
20260507205912 44 0 0.0 0.0 0.00 0.00 0.00 28 880.4
20260507205409 44 0 0.0 0.0 0.00 0.00 0.00 28 880.4
20260507204909 44 0 0.0 0.0 0.00 0.00 0.00 28 880.3
20260507204410 44 0 0.0 0.0 0.00 0.00 0.00 28 880.3
20260507203910 44 0 0.0 0.0 0.00 0.00 0.00 28 880.2
20260507203410 44 0 0.0 0.0 0.00 0.00 0.00 28 880.2
20260507202907 44 0 0.0 0.0 0.00 0.00 0.00 28 880.2
20260507202407 44 0 0.0 0.0 0.00 0.00 0.00 28 880.2
20260507201907 44 0 0.0 0.0 0.00 0.00 0.00 28 880.2
20260507201407 44 0 0.0 0.0 0.00 0.00 0.00 28 880.4
20260507200907 44 0 0.0 0.0 0.00 0.00 0.00 28 880.4
20260507200407 44 0 0.0 0.0 0.00 0.00 0.00 28 880.3
20260507195907 44 0 0.0 0.0 0.00 0.00 0.00 28 880.3
20260507195407 44 0 0.0 0.0 0.00 0.00 0.00 28 880.2
20260507194907 44 0 0.0 0.0 0.00 0.00 0.00 28 880.1
20260507194408 44 0 0.0 0.0 0.00 0.00 0.00 28 880.1
20260507193908 44 0 0.0 0.0 0.00 0.00 0.00 28 880.1
20260507193359 44 0 0.0 0.0 0.00 0.00 0.00 28 880.1
20260507192859 44 0 0.0 0.0 0.00 0.00 0.00 28 880.1
20260507192359 44 0 0.0 0.0 0.00 0.00 0.00 28 880.1
20260507191859 44 0 0.0 0.0 0.00 0.00 0.00 28 880.0
20260507191359 44 0 0.0 0.0 0.00 0.00 0.00 28 880.0
20260507190859 44 0 0.0 0.0 0.00 0.00 0.00 28 879.9
20260507190357 44 0 0.0 0.0 0.00 0.00 0.00 28 880.0
20260507185357 44 0 0.0 0.0 0.00 0.00 0.00 28 879.9
20260507184857 44 0 0.0 0.0 0.00 0.00 0.00 28 879.8
20260507184357 44 0 0.0 0.0 0.00 0.00 0.00 28 879.8
20260507183855 44 0 0.0 0.0 0.00 0.00 0.00 28 879.8
20260507183355 44 0 0.0 0.0 0.00 0.00 0.00 28 879.7
20260507182855 44 0 0.0 0.0 0.00 0.00 0.00 28 879.7
20260507182610 44 0 0.0 0.0 0.00 0.00 0.00 28 879.6
20260507182355 44 0 0.0 0.0 0.00 0.00 0.00 28 879.6
20260507181855 44 0 0.0 0.0 0.00 0.00 0.00 28 879.6
20260507181354 44 0 0.0 0.0 0.00 0.00 0.00 27 879.5
20260507180854 44 0 0.0 0.0 0.00 0.00 0.00 27 879.5
20260507180354 44 0 0.0 0.0 0.00 0.00 0.00 27 879.5
20260507175855 44 0 0.0 0.0 0.00 0.00 0.00 27 879.5
20260507175355 44 0 0.0 0.0 0.00 0.00 0.00 27 879.5
20260507174855 44 0 0.0 0.0 0.00 0.00 0.00 27 879.7
20260507174354 44 0 0.0 0.0 0.00 0.00 0.00 27 879.7
20260507173854 44 0 0.0 0.0 0.00 0.00 0.00 27 879.7
20260507173355 44 0 0.0 0.0 0.00 0.00 0.00 27 879.7
20260507172855 44 0 0.0 0.0 0.00 0.00 0.00 27 879.7
20260507172355 44 0 0.0 0.0 0.00 0.00 0.00 27 879.7
20260507171854 44 0 0.0 0.0 0.00 0.00 0.00 27 879.7
20260507171341 44 0 0.0 0.0 0.00 0.00 0.00 27 879.7
20260507170841 44 0 0.0 0.0 0.00 0.00 0.00 27 879.7
20260507170342 45 0 0.0 0.0 0.00 0.00 0.00 27 879.6
20260507165842 46 0 0.0 0.0 0.00 0.00 0.00 28 879.7
20260507165342 47 0 0.0 0.0 0.00 0.00 0.00 28 879.6
20260507164842 47 0 0.0 0.0 0.00 0.00 0.00 29 879.5
20260507164342 47 0 0.0 0.0 0.00 0.00 0.00 29 879.4
20260507163842 47 0 0.0 0.0 0.00 0.00 0.00 28 879.2
20260507163342 47 0 0.0 0.0 0.00 0.00 0.00 28 879.2
20260507162842 47 0 0.0 0.0 0.00 0.00 0.00 28 879.2
20260507162342 47 0 0.0 0.0 0.00 0.00 0.00 28 879.2
20260507161842 47 0 0.0 0.0 0.00 0.00 0.00 99 879.2
20260507161342 47 0 0.0 0.0 0.00 0.00 0.00 99 879.2
20260507160842 47 0 0.0 0.0 0.00 0.00 0.00 99 879.2
20260507160340 47 0 0.0 0.0 0.00 0.00 0.00 98 879.3
20260507155340 47 0 0.0 0.0 0.00 0.00 0.00 97 879.2
20260507154840 48 0 0.0 0.0 0.00 0.00 0.00 96 879.2
20260507154340 48 0 0.0 0.0 0.00 0.00 0.00 96 879.3
20260507153838 48 0 0.0 0.0 0.00 0.00 0.00 96 879.2
20260507153329 48 0 0.0 0.0 0.00 0.00 0.00 95 879.2
20260507152828 48 0 0.0 0.0 0.00 0.00 0.00 95 879.2
20260507152328 48 0 0.0 0.0 0.00 0.00 0.00 94 879.2
20260507151829 48 0 0.0 0.0 0.00 0.00 0.00 94 879.2
20260507151329 48 0 0.0 0.0 0.00 0.00 0.00 93 879.2
20260507150829 48 0 0.0 0.0 0.00 0.00 0.00 93 879.2
20260507145829 48 0 0.0 0.0 0.00 0.00 0.00 92 879.1
20260507145329 48 0 0.0 0.0 0.00 0.00 0.00 92 879.2
20260507144829 49 0 0.0 0.0 0.00 0.00 0.00 92 879.2
20260507144329 48 0 0.0 0.0 0.00 0.00 0.00 91 879.1
20260507143829 48 0 0.0 0.0 0.00 0.00 0.00 90 879.1
20260507143328 47 0 0.0 0.0 0.00 0.00 0.00 89 879.1
20260507142829 47 0 0.0 0.0 0.00 0.00 0.00 89 879.0
20260507142328 47 0 0.0 0.0 0.00 0.00 0.00 88 879.0
20260507141828 47 0 0.0 0.0 0.00 0.00 0.00 86 879.1
20260507140826 46 0 0.0 0.0 0.00 0.00 0.00 83 879.2
20260507140326 47 0 0.0 0.0 0.00 0.00 0.00 81 879.2
20260507135826 47 0 0.0 0.0 0.00 0.00 0.00 81 879.2
20260507135326 47 0 0.0 0.0 0.00 0.00 0.00 80 879.3
20260507134824 47 0 0.0 0.0 0.00 0.00 0.00 80 879.3
20260507134324 47 0 0.0 0.0 0.00 0.00 0.00 80 879.3
20260507133824 47 0 0.0 0.0 0.00 0.00 0.00 80 879.3
20260507133324 47 0 0.0 0.0 0.00 0.00 0.00 79 879.3
20260507132824 47 0 0.0 0.0 0.00 0.00 0.00 79 879.4
20260507132324 47 0 0.0 0.0 0.00 0.00 0.00 79 879.5
20260507131825 48 0 0.0 0.0 0.00 0.00 0.00 78 879.5
20260507130825 48 0 0.0 0.0 0.00 0.00 0.00 77 879.4
20260507130315 48 0 0.0 0.0 0.00 0.00 0.00 76 879.3
20260507125815 49 0 0.0 0.0 0.00 0.00 0.00 75 879.3
20260507125316 50 0 0.0 0.0 0.00 0.00 0.00 74 879.3
20260507124816 51 0 0.0 0.0 0.00 0.00 0.00 73 879.3
20260507124316 51 0 0.0 0.0 0.00 0.00 0.00 73 879.3
20260507123816 51 0 0.0 0.0 0.00 0.00 0.00 73 879.2
20260507123316 51 0 0.0 0.0 0.00 0.00 0.00 73 879.2
20260507122816 51 0 0.0 0.0 0.00 0.00 0.00 73 879.1
20260507122314 51 0 0.0 0.0 0.00 0.00 0.00 72 879.1
20260507121814 52 0 0.0 0.0 0.00 0.00 0.00 72 879.1
20260507121314 52 0 0.0 0.0 0.00 0.00 0.00 72 879.1
20260507120814 53 0 0.0 0.0 0.00 0.00 0.00 71 879.1
20260507120314 54 0 0.0 0.0 0.00 0.00 0.00 71 879.0
20260507115811 55 0 0.0 0.0 0.00 0.00 0.00 71 879.0
20260507115312 56 0 0.0 0.0 0.00 0.00 0.00 71 878.9
20260507114812 56 0 0.0 0.0 0.00 0.00 0.00 71 878.9
20260507114312 55 0 0.0 0.0 0.00 0.00 0.00 71 878.9
20260507113811 55 0 0.0 0.0 0.00 0.00 0.00 71 879.0
20260507113311 55 0 0.0 0.0 0.00 0.00 0.00 71 879.0
20260507112811 55 0 0.0 0.0 0.00 0.00 0.00 72 878.9
20260507112311 55 0 0.0 0.0 0.00 0.00 0.00 72 879.0
20260507111811 54 0 0.0 0.0 0.00 0.00 0.00 72 879.0
20260507111311 54 0 0.0 0.0 0.00 0.00 0.00 72 879.0
20260507110811 54 0 0.0 0.0 0.00 0.00 0.00 72 879.1
20260507110312 53 0 0.0 0.0 0.00 0.00 0.00 73 879.0
20260507105812 53 0 0.0 0.0 0.00 0.00 0.00 73 879.0
20260507105312 53 0 0.0 0.0 0.00 0.00 0.00 73 879.0
20260507104812 53 0 0.0 0.0 0.00 0.00 0.00 72 878.9
20260507104312 54 0 0.0 0.0 0.00 0.00 0.00 72 878.9
20260507103812 54 0 0.0 0.0 0.00 0.00 0.00 73 878.8
20260507103301 54 0 0.0 0.0 0.00 0.00 0.00 73 878.8
20260507102801 54 0 0.0 0.0 0.00 0.00 0.00 73 878.8
20260507102301 54 0 0.0 0.0 0.00 0.00 0.00 73 878.8
20260507101801 54 0 0.0 0.0 0.00 0.00 0.00 73 878.8
20260507101301 53 0 0.0 0.0 0.00 0.00 0.00 74 878.7
20260507100758 52 0 0.0 0.0 0.00 0.00 0.00 74 878.8
20260507100257 52 0 0.0 0.0 0.00 0.00 0.00 74 878.8
20260507095757 52 0 0.0 0.0 0.00 0.00 0.00 74 878.7
20260507095257 52 0 0.0 0.0 0.00 0.00 0.00 74 878.7
20260507094757 52 0 0.0 0.0 0.00 0.00 0.00 74 878.6
20260507094257 52 0 0.0 0.0 0.00 0.00 0.00 73 878.6
20260507093757 53 0 0.0 0.0 0.00 0.00 0.00 73 878.6
20260507093257 53 0 0.0 0.0 0.00 0.00 0.00 73 878.6
20260507092757 54 0 0.0 0.0 0.00 0.00 0.00 73 878.5
20260507092257 54 0 0.0 0.0 0.00 0.00 0.00 73 878.4
20260507091757 54 0 0.0 0.0 0.00 0.00 0.00 73 878.4
20260507091257 54 0 0.0 0.0 0.00 0.00 0.00 73 878.4
20260507090757 54 0 0.0 0.0 0.00 0.00 0.00 73 878.3
20260507090257 54 0 0.0 0.0 0.00 0.00 0.00 73 878.2
20260507085757 54 0 0.0 0.0 0.00 0.00 0.00 73 878.2
20260507085257 54 0 0.0 0.0 0.00 0.00 0.00 73 878.1
20260507084757 54 0 0.0 0.0 0.00 0.00 0.00 73 878.0
20260507084255 55 0 0.0 0.0 0.00 0.00 0.00 73 878.0
20260507083755 55 0 0.0 0.0 0.00 0.00 0.00 73 877.9
20260507082755 54 0 0.0 0.0 0.00 0.00 0.00 74 877.7
20260507082255 53 0 0.0 0.0 0.00 0.00 0.00 74 877.5
20260507081753 52 0 0.0 0.0 0.00 0.00 0.00 74 877.5
20260507081253 52 0 0.0 0.0 0.00 0.00 0.00 74 877.4
20260507080753 52 0 0.0 0.0 0.00 0.00 0.00 74 877.4
20260507080244 52 0 0.0 0.0 0.00 0.00 0.00 75 877.4
20260507075744 51 0 0.0 0.0 0.00 0.00 0.00 75 877.3
20260507075243 51 0 0.0 0.0 0.00 0.00 0.00 75 877.4
20260507074744 51 0 0.0 0.0 0.00 0.00 0.00 76 877.1
20260507074243 50 0 0.0 0.0 0.00 0.00 0.00 76 877.1
20260507073743 50 0 0.0 0.0 0.00 0.00 0.00 76 877.0
20260507073243 50 0 0.0 0.0 0.00 0.00 0.00 76 877.0
20260507072743 50 0 0.0 0.0 0.00 0.00 0.00 76 876.9
20260507072243 50 0 0.0 0.0 0.00 0.00 0.00 76 876.8
20260507071743 50 0 0.0 0.0 0.00 0.00 0.00 76 876.7
20260507071243 50 0 0.0 0.0 0.00 0.00 0.00 76 876.7
20260507070743 50 0 0.0 0.0 0.00 0.00 0.00 76 876.7
20260507070243 50 0 0.0 0.0 0.00 0.00 0.00 76 876.6
20260507065743 50 0 0.0 0.0 0.00 0.00 0.00 76 876.6
20260507064741 50 0 0.0 0.0 0.00 0.00 0.00 76 876.6
20260507064241 50 0 0.0 0.0 0.00 0.00 0.00 76 876.6
20260507063741 50 0 0.0 0.0 0.00 0.00 0.00 76 876.6
20260507062239 50 0 0.0 0.0 0.00 0.00 0.00 76 876.5
20260507061739 50 0 0.0 0.0 0.00 0.00 0.00 77 876.5
20260507060739 49 0 0.0 0.0 0.00 0.00 0.00 77 876.4
20260507060240 49 0 0.0 0.0 0.00 0.00 0.00 77 876.3
20260507055739 49 0 0.0 0.0 0.00 0.00 0.00 77 876.3
20260507055239 48 0 0.0 0.0 0.00 0.00 0.00 77 876.3
20260507054739 49 0 0.0 0.0 0.00 0.00 0.00 77 876.4
20260507054239 49 0 0.0 0.0 0.00 0.00 0.00 77 876.4
20260507053739 49 0 0.0 0.0 0.00 0.00 0.00 77 876.3
20260507053230 49 0 0.0 0.0 0.00 0.00 0.00 77 876.3
20260507052738 49 0 0.0 0.0 0.00 0.00 0.00 77 876.4
20260507052230 49 0 0.0 0.0 0.00 0.00 0.00 77 876.3
20260507051730 49 0 0.0 0.0 0.00 0.00 0.00 77 876.3
20260507051230 48 0 0.0 0.0 0.00 0.00 0.00 77 876.3
20260507050730 48 0 0.0 0.0 0.00 0.00 0.00 77 876.3
20260507050228 48 0 0.0 0.0 0.00 0.00 0.00 77 876.3
20260507045728 48 0 0.0 0.0 0.00 0.00 0.00 77 876.1
20260507045228 48 0 0.0 0.0 0.00 0.00 0.00 77 875.9
20260507044728 48 0 0.0 0.0 0.00 0.00 0.00 77 875.8
20260507044229 48 0 0.0 0.0 0.00 0.00 0.00 77 876.0
20260507043726 48 0 0.0 0.0 0.00 0.00 0.00 77 876.0
20260507043226 47 0 0.0 0.0 0.00 0.00 0.00 77 876.0
20260507042726 47 0 0.0 0.0 0.00 0.00 0.00 77 876.1
20260507042226 47 0 0.0 0.0 0.00 0.00 0.00 77 876.1
20260507041726 47 0 0.0 0.0 0.00 0.00 0.00 77 876.2
20260507041225 47 0 0.0 0.0 0.00 0.00 0.00 77 876.2
20260507040726 47 0 0.0 0.0 0.00 0.00 0.00 77 876.2
20260507040226 47 0 0.0 0.0 0.00 0.00 0.00 77 876.1
20260507035726 47 0 0.0 0.0 0.00 0.00 0.00 76 876.0
20260507035226 47 0 0.0 0.0 0.00 0.00 0.00 76 876.0
20260507034725 47 0 0.0 0.0 0.00 0.00 0.00 76 876.0
20260507034225 47 0 0.0 0.0 0.00 0.00 0.00 76 875.9
20260507033726 47 0 0.0 0.0 0.00 0.00 0.00 76 875.9
20260507033226 47 0 0.0 0.0 0.00 0.00 0.00 76 875.7
20260507032726 47 0 0.0 0.0 0.00 0.00 0.00 76 875.5
20260507032226 47 0 0.0 0.0 0.00 0.00 0.00 75 875.4
20260507031726 47 0 0.0 0.0 0.00 0.00 0.00 75 875.4
20260507031224 47 0 0.0 0.0 0.00 0.00 0.00 75 875.3
20260507030724 47 0 0.0 0.0 0.00 0.00 0.00 75 875.2
20260507030214 47 0 0.0 0.0 0.00 0.00 0.00 75 875.1
20260507025714 47 0 0.0 0.0 0.00 0.00 0.00 75 874.9
20260507025215 47 0 0.0 0.0 0.00 0.00 0.00 75 874.9
20260507024712 47 0 0.0 0.0 0.00 0.00 0.00 74 874.9
20260507024212 47 0 0.0 0.0 0.00 0.00 0.00 74 874.9
20260507023712 48 0 0.0 0.0 0.00 0.00 0.00 74 875.2
20260507023212 48 0 0.0 0.0 0.00 0.00 0.00 74 875.1
20260507022712 48 0 0.0 0.0 0.00 0.00 0.00 74 875.3
20260507022212 48 0 0.0 0.0 0.00 0.00 0.00 74 875.3
20260507021712 48 0 0.0 0.0 0.00 0.00 0.00 74 875.5
20260507021212 48 0 0.0 0.0 0.00 0.00 0.00 74 875.3
20260507020712 48 0 0.0 0.0 0.00 0.00 0.00 74 875.3
20260507020212 48 0 0.0 0.0 0.00 0.00 0.00 74 875.2
20260507015712 48 0 0.0 0.0 0.00 0.00 0.00 74 875.3
20260507015212 48 0 0.0 0.0 0.00 0.00 0.00 74 875.3
20260507014712 48 0 0.0 0.0 0.00 0.00 0.00 74 875.2
20260507014212 48 0 0.0 0.0 0.00 0.00 0.00 74 875.2
20260507013712 48 0 0.0 0.0 0.00 0.00 0.00 74 875.1
20260507013213 48 0 0.0 0.0 0.00 0.00 0.00 74 875.3